This is the latest recevied weather packets stored in our database for station/object KQ4LLM. If no packets are shown the sender has not sent any weather packets the latest 10 day(s).
| Time | Temp. | Humidity | Pressure | Rain* | Wind** | Luminosity | Snow |
|---|---|---|---|---|---|---|---|
| 1778004992 | 25° C | 36% | - | 0 mm | - | - | - |
| 1778004690 | 25° C | 39% | - | 0 mm | - | - | - |
| 1778004386 | 25° C | 40% | - | 0 mm | - | - | - |
| 1778004083 | 25.56° C | 39% | - | 0 mm | - | - | - |
| 1778003779 | 25.56° C | 40% | - | 0 mm | - | - | - |
| 1778003476 | 25.56° C | 41% | - | 0 mm | - | - | - |
| 1778003172 | 25.56° C | 38% | - | 0 mm | - | - | - |
| 1778002868 | 25.56° C | 40% | - | 0 mm | - | - | - |
| 1778002565 | 25° C | 39% | - | 0 mm | - | - | - |
| 1778002262 | 25° C | 40% | - | 0 mm | - | - | - |
| 1778001960 | 24.44° C | 37% | - | 0 mm | - | - | - |
| 1778001656 | 24.44° C | 38% | - | 0 mm | - | - | - |
| 1778001351 | 25° C | 39% | - | 0 mm | - | - | - |
| 1778001048 | 24.44° C | 40% | - | 0 mm | - | - | - |
| 1778000745 | 24.44° C | 41% | - | 0 mm | - | - | - |
| 1778000442 | 23.89° C | 42% | - | 0 mm | - | - | - |
| 1778000137 | 24.44° C | 41% | - | 0 mm | - | - | - |
| 1777999832 | 23.89° C | 42% | - | 0 mm | - | - | - |
| 1777999529 | 23.89° C | 40% | - | 0 mm | - | - | - |
| 1777999227 | 23.89° C | 40% | - | 0 mm | - | - | - |
| 1777998925 | 23.89° C | 45% | - | 0 mm | - | - | - |
| 1777998621 | 23.33° C | 50% | - | 0 mm | - | - | - |
| 1777998315 | 22.78° C | 47% | - | 0 mm | - | - | - |
| 1777998012 | 22.78° C | 49% | - | 0 mm | - | - | - |
| 1777997708 | 22.78° C | 51% | - | 0 mm | - | - | - |
* Rain latest hour (hover to see other rain measurements)
** Current wind speed in m/s (hover to see current wind gust speed)